User: anonymous   Login
Location: Caltech
(34.1382°N, 118.1253°W)
Time: 11:22:08
(UTC-07:00)
Language:

Cosmos 1125 Rocket - Orbit

View from above orbital plane
View from above orbital plane
View from above satellite
View from above satellite

Ground track
Ground track

The orbit data is extracted from the following two-line orbital elements,

1 11511U 79078B   18114.12043663  .00000091  00000-0  39747-4 0  9994
2 11511  74.0349 103.7875 0016893 271.3991  88.5227 14.36807940 23276
Epoch (UTC): 24 April 2018 02:53:25
Eccentricity: 0.0016893
inclination: 74.0349°
perigee height: 757 km
apogee height: 781 km
right ascension of ascending node: 103.7875°
argument of perigee: 271.3991°
revolutions per day: 14.36807940
mean anomaly at epoch: 88.5227°
orbit number at epoch: 2327

The dashed part of the orbit path shows where the satellite is in the earth's shadow,  

DLR